DateTimeUTC,F1_A11,F1_S11,BsB_S11,BsG_S11,BsR_S11,BbsB_S11,BbsG_S11,BbsR_S11,BaB_A11,BaG_A11,BaR_A11,Tu_S11,T_S11,Uu_S11,U_S11,P_S11,T1_A11
2021-01-20T20:00:00Z,00000200,21000000,,,,,,,-000.01,-000.09,-000.39,16.4,23.5,,00.0,0648.6,30.9
2021-01-20T20:01:00Z,00000200,21000000,,,,,,,-000.49,-000.08,0000.04,16.5,23.5,,00.0,0648.6,30.9
2021-01-20T20:02:00Z,00000200,21000000,,,,,,,0000.22,0000.28,0000.15,16.5,23.6,,00.0,0648.6,30.9
2021-01-20T20:03:00Z,00000200,61000000,,,,,,,0000.34,0000.09,0000.33,16.5,23.6,,00.0,0648.6,30.9
2021-01-20T20:04:00Z,00000200,41000000,0000.02,-000.04,-000.10,0000.32,0000.15,-000.15,0000.28,0000.25,-000.20,16.7,23.4,,00.0,0649.4,30.9
2021-01-20T20:05:00Z,00000200,01000000,0000.27,-000.21,0000.27,0000.17,-000.09,-000.14,0000.05,0000.01,0000.22,16.8,23.4,,00.0,0649.4,30.9
2021-01-20T20:06:00Z,00000200,01000000,0000.04,0000.05,0000.03,0000.20,0000.09,0000.04,0000.09,0000.27,0000.05,16.8,23.4,,00.0,0649.4,30.9
2021-01-20T20:07:00Z,00000200,01000000,0000.29,0000.21,0000.11,-000.09,-000.09,-000.05,-000.19,-000.39,-000.23,16.8,23.4,,00.0,0649.4,30.9
2021-01-20T20:08:00Z,00000200,01000000,-000.07,0000.07,-000.17,0000.38,0000.04,0000.10,0000.25,0000.04,-000.06,16.8,23.4,,00.0,0649.4,30.9
2021-01-20T20:09:00Z,00000200,01000000,0000.03,0000.17,0000.11,-000.17,-000.03,-000.14,-000.05,0000.27,0000.26,16.8,23.3,,00.0,0649.4,30.9
2021-01-20T20:10:00Z,00000200,01000000,-000.34,0000.21,-000.04,0000.19,-000.45,-000.04,0000.19,0000.12,0000.24,16.8,23.3,,00.0,0649.4,30.9
2021-01-20T20:11:00Z,00000200,01000000,0000.32,0000.13,0000.03,-000.33,-000.07,-000.06,-000.03,-000.01,0000.08,16.7,23.3,,00.0,0649.3,30.9
2021-01-20T20:12:00Z,00000200,01000000,0000.22,0000.09,-000.08,-000.46,0000.00,-000.05,0000.10,-000.09,-000.03,16.7,23.3,,00.0,0649.4,30.9
2021-01-20T20:13:00Z,00000200,01000000,-000.10,-000.27,0000.07,0000.07,-000.07,-000.25,0000.36,0000.44,0000.19,16.8,23.3,,00.0,0649.4,30.9
2021-01-20T20:14:00Z,00000200,01000000,-000.39,-000.11,-000.31,0000.34,0000.28,-000.29,-000.05,0000.06,-000.21,16.9,23.3,,00.0,0649.4,30.9
2021-01-20T20:15:00Z,00000200,01000000,-000.40,-000.01,0000.10,0000.45,0000.16,-000.04,-000.05,-000.28,0000.25,16.9,23.4,,00.0,0649.4,30.9
2021-01-20T20:16:00Z,00000200,01000000,-000.12,0000.04,-000.28,-000.06,0000.02,-000.09,0000.35,0000.36,-000.30,16.9,23.4,,00.0,0649.4,30.9
2021-01-20T20:17:00Z,00000200,01000000,-000.75,-000.04,0000.15,0000.37,0000.21,-000.04,-000.12,0000.02,0000.26,16.9,23.4,,00.0,0649.4,30.9
2021-01-20T20:18:00Z,00000200,01000000,-000.14,0000.03,-000.11,0000.08,-000.02,-000.12,0000.04,0000.31,0000.28,16.9,23.4,,00.0,0649.5,30.9
2021-01-20T20:19:00Z,00000200,01000000,-000.08,0000.27,0000.13,0000.30,0000.15,0000.01,-000.05,0000.16,0000.14,16.9,23.4,,00.0,0649.5,30.9
2021-01-20T20:20:00Z,00000200,01000000,-000.12,-000.22,-000.01,0000.15,0000.12,0000.12,0000.31,-000.18,-000.18,16.9,23.4,,00.0,0649.5,30.9
2021-01-20T20:21:00Z,00000200,01000000,0000.21,0000.10,-000.20,0000.06,0000.00,-000.04,-000.14,-000.02,0000.05,16.9,23.4,,00.0,0649.6,30.9
2021-01-20T20:22:00Z,00000200,01000000,0000.62,-000.17,-000.13,0000.68,-000.28,0000.08,0000.25,0000.36,0000.18,16.9,23.4,,00.0,0649.6,30.9
2021-01-20T20:23:00Z,00000200,01000000,0000.16,0000.31,-000.08,-000.62,-000.06,-000.01,0000.01,0000.03,-000.47,16.9,23.4,,00.0,0649.5,30.9
2021-01-20T20:24:00Z,00000200,01000000,-000.19,0000.34,0000.11,0000.51,0000.13,-000.24,0000.28,-000.04,0000.58,16.8,23.4,,00.0,0649.5,30.9
2021-01-20T20:25:00Z,00000200,01000000,-000.42,-000.16,-000.06,0000.38,0000.02,0000.05,-000.24,-000.27,-000.33,16.8,23.4,,00.0,0649.6,30.9
2021-01-20T20:26:00Z,00000200,01000000,0000.06,0000.11,-000.05,0000.67,-000.04,0000.01,-000.13,-000.42,-000.18,16.8,23.4,,00.0,0649.6,30.9
2021-01-20T20:27:00Z,00000200,01000000,-000.01,-000.08,-000.08,-000.24,0000.01,-000.11,-000.00,0000.13,0000.15,16.8,23.3,,00.0,0649.7,30.9
2021-01-20T20:28:00Z,00000200,01000000,-000.55,-000.12,0000.01,0000.74,-000.08,-000.10,0000.13,0000.55,0000.20,16.9,23.3,,00.0,0649.7,30.9
2021-01-20T20:29:00Z,00000200,01000000,0000.85,0000.11,-000.07,-000.21,0000.13,0000.03,0000.22,0000.22,0000.04,16.9,23.4,,00.0,0649.7,30.9
2021-01-20T20:30:00Z,00000200,01000000,-000.01,0000.06,0000.33,-000.13,0000.05,-000.01,-000.43,-000.80,-000.03,16.9,23.4,,00.0,0649.7,30.9
2021-01-20T20:31:00Z,00000200,01000000,0000.09,-000.17,-000.03,-000.35,0000.06,-000.13,0000.21,0000.60,-000.18,16.9,23.4,,00.0,0649.6,30.9
2021-01-20T20:32:00Z,00000200,01000000,0000.12,0000.06,-000.07,0000.27,0000.15,-000.17,0000.08,0000.04,0000.18,16.9,23.4,,00.0,0649.6,30.9
2021-01-20T20:33:00Z,00000200,01000000,-000.03,-000.20,-000.15,-000.16,0000.03,-000.34,0000.14,-000.34,-000.20,16.9,23.4,,00.0,0649.6,30.9
2021-01-20T20:34:00Z,00000200,01000000,-000.15,-000.03,0000.06,-000.20,0000.23,-000.11,0000.08,0000.02,-000.09,16.9,23.4,,00.0,0649.6,30.9
2021-01-20T20:35:00Z,00000200,01000000,-000.31,0000.04,-000.04,0000.38,0000.17,-000.06,0000.08,0000.36,0000.12,16.9,23.4,,00.0,0649.6,30.9
2021-01-20T20:36:00Z,00000200,01000000,-000.63,0000.08,0000.02,-000.17,0000.07,-000.19,-000.04,-000.01,-000.04,16.9,23.3,,00.0,0649.7,30.9
2021-01-20T20:37:00Z,00000200,01000000,0000.04,0000.32,-000.05,-000.07,0000.07,-000.12,0000.05,0000.20,0000.44,16.9,23.3,,00.0,0649.7,30.9
2021-01-20T20:38:00Z,00000200,01000000,-000.69,-000.15,-000.22,0000.50,-000.05,-000.04,0000.28,-000.02,-000.05,16.8,23.4,,00.0,0649.7,30.9
2021-01-20T20:39:00Z,00000200,01000000,0000.59,-000.12,-000.20,0000.24,-000.04,-000.29,-000.26,-000.22,-000.01,16.8,23.3,,00.0,0649.7,30.9
2021-01-20T20:40:00Z,00000200,01000000,0000.13,0000.10,0000.02,0000.15,0000.05,0000.01,0000.24,0000.34,0000.40,16.8,23.3,,00.0,0649.7,30.9
2021-01-20T20:41:00Z,00000200,01000000,-000.38,0000.06,-000.01,0000.16,-000.23,-000.22,0000.22,-000.33,-000.07,16.8,23.3,,00.0,0649.7,30.9
2021-01-20T20:42:00Z,00000200,01000000,0000.27,-000.15,-000.10,0000.53,-000.13,0000.05,-000.48,-000.23,-000.23,16.8,23.3,,00.0,0649.7,30.9
2021-01-20T20:43:00Z,00000200,01000000,0000.22,0000.08,0000.05,0000.29,-000.00,0000.05,0000.65,0001.04,0000.37,16.8,23.3,,00.0,0649.7,30.9
2021-01-20T20:44:00Z,00000200,01000000,-000.13,-000.02,-000.29,0000.52,0000.05,-000.10,-000.15,-000.40,-000.49,16.9,23.3,,00.0,0649.7,30.9
2021-01-20T20:45:00Z,00000200,01000000,-000.75,-000.17,-000.00,0000.17,-000.14,-000.04,-000.21,-000.12,0000.42,16.9,23.4,,00.0,0649.7,30.9
2021-01-20T20:46:00Z,00000200,01000000,0000.16,0000.03,-000.04,0000.51,-000.11,-000.18,0000.21,0000.19,-000.14,16.9,23.3,,00.0,0649.7,30.9
2021-01-20T20:47:00Z,00000200,01000000,0000.29,0000.27,0000.03,-000.10,0000.02,0000.08,-000.03,0000.46,0000.07,16.9,23.4,,00.0,0649.7,30.9
2021-01-20T20:48:00Z,00000200,01000000,-000.34,0000.43,-000.26,-000.59,0000.06,-000.04,-000.04,-000.71,-000.07,16.9,23.4,,00.0,0649.7,30.9
2021-01-20T20:49:00Z,00000200,01000000,0000.16,-000.02,0000.11,0000.11,0000.02,-000.21,0000.07,0000.50,0000.13,16.9,23.4,,00.0,0649.7,30.9
2021-01-20T20:50:00Z,00000200,01000000,0000.44,-000.21,0000.12,0000.05,0000.29,0000.03,0000.15,-000.23,-000.03,16.9,23.4,,00.0,0649.8,30.9
2021-01-20T20:51:00Z,00000200,01000000,-000.07,0000.07,-000.10,-000.01,-000.12,0000.03,0000.19,0000.28,0000.27,16.9,23.4,,00.0,0649.8,30.9
2021-01-20T20:52:00Z,00000200,01000000,-001.01,0000.01,-000.09,-000.02,-000.05,-000.32,-000.26,-000.19,-000.33,16.9,23.4,,00.0,0649.8,30.9
2021-01-20T20:53:00Z,00000200,01000000,0000.10,0000.13,-000.22,0000.38,0000.01,-000.08,0000.39,0000.38,-000.01,16.9,23.3,,00.0,0649.9,30.9
2021-01-20T20:54:00Z,00000200,01000000,0000.25,-000.06,0000.19,0000.20,-000.01,-000.13,-000.15,-000.04,0000.16,16.9,23.3,,00.0,0649.9,30.9
2021-01-20T20:55:00Z,00000200,01000000,0000.10,-000.06,-000.12,-000.15,0000.25,-000.00,0000.25,-000.11,-000.07,16.8,23.3,,00.0,0649.9,30.9
2021-01-20T20:56:00Z,00000200,01000000,-000.24,0000.04,0000.01,-000.14,-000.12,0000.14,-000.53,-000.14,0000.21,16.9,23.3,,00.0,0650.0,30.9
2021-01-20T20:57:00Z,00000200,41000000,,,,,,,0000.16,0000.02,0000.03,16.9,23.3,,00.0,0649.8,30.9
2021-01-20T20:58:00Z,00000200,61000000,,,,,,,0000.08,0000.03,-000.07,16.6,23.5,,00.0,0649.1,30.9
2021-01-20T20:59:00Z,00000200,21000000,,,,,,,-000.09,-000.18,-000.01,16.6,23.6,,00.0,0649.1,30.9
